[[{"header":{"parameterUnit":"m.s-1","parameterCategory":1,"la1":30.2991,"la2":30.254,"lo1":-89.0895,"lo2":-89.0444,"dy":0.0017,"dx":0.0017,"nx":28,"ny":28,"refTime":"2024-07-17T03:00:00:Z","depth":0,"parameterNumber":2,"parameterNumberName":"U-component_of_WINDS"},"data":[0,0,0,0,0,0,0,0,0,0,0,0,0,0,0,0,0,0,0,0,0,0,0,0,0,0,0,0,0,0,0,0,0,0,0,0,0,0,0,0,0,0,0,0,0,0,0,0,0,0,0,0,0,0,0,0,0,0,0.9178,0.9179,0,0.9271,0.9272,0.9273,0.9276,0.9275,0.9274,0.9273,0.937,0.9374,0.9377,0,0,0,0,0,0,0,0,0,0,0,0,0,0.9006,0.9009,0.9178,0.9179,0.918,0.9271,0.9272,0.9273,0.9277,0.9275,0.9274,0.9273,0.9369,0.9373,0.9378,0,0,0,0,0,0,0,0,0,0,0,0,0,0.9088,0.901,0.9178,0.9193,0.9195,0.927,0.9272,0.9274,0.9277,0.9275,0.9273,0.9272,0.9368,0.9373,0.9378,0.9446,0,0,0.9395,0.9397,0,0,0,0,0,0,0,0,0.9083,0.9094,0.9189,0.9192,0.9195,0.926,0.9247,0.9331,0.9277,0.9246,0.9273,0.9271,0.9335,0.9343,0.9364,0.945,0.9454,0.9396,0.9399,0.9401,0.9403,0,0,0,0,0,0,0,0.9078,0.909,0.9215,0.9191,0.9194,0.9196,0.9206,0.9263,0.9299,0.9248,0.9249,0.926,0.9336,0.9359,0.9367,0.9456,0.9395,0.94,0.9404,0.9406,0.9603,0.9605,0,0,0,0,0,0,0.9069,0.9086,0.9212,0.9218,0.9134,0.92,0.9211,0.9241,0.9298,0.9305,0.9261,0.926,0.9351,0.936,0.937,0.9453,0.9401,0.9406,0.9409,0.9601,0.9604,0.9606,0,0,0,0,0,0,0.9065,0.908,0.9208,0.9152,0.9168,0.9205,0.9238,0.9244,0.9266,0.9308,0.9314,0.9278,0.935,0.9362,0.9427,0.9457,0.9409,0.9414,0.9599,0.9602,0.9605,0.9619,0,0,0,0,0,0,0.906,0.9079,0.9104,0.9152,0.9171,0.9262,0.924,0.9247,0.9276,0.9274,0.9325,0.9332,0.9349,0.9419,0.9432,0.9463,0.9418,0.9596,0.96,0.9604,0.9616,0.9622,0.9628,0,0,0,0,0,0.9054,0.9104,0.9105,0.912,0.9203,0.9264,0.9275,0.9293,0.9278,0.9304,0.9331,0.933,0.9451,0.9425,0.9441,0.9474,0.9595,0.9599,0.9603,0.9614,0.9621,0.9627,0,0,0,0,0,0,0.9058,0.9111,0.9112,0.918,0.9217,0.9264,0.9298,0.9301,0.9344,0.9341,0.9363,0.9374,0.9439,0.9463,0.9433,0.9543,0.9521,0.9529,0.9524,0.9531,0.9537,0.9529,0.9422,0,0,0,0,0,0.9067,0.9111,0.9155,0.9211,0.923,0.926,0.9288,0.9299,0.9339,0.9355,0.9387,0.9426,0.9473,0.9504,0.955,0.962,0.9632,0.9651,0.9656,0.9661,0.9667,0.9707,0.9716,0.962,0.962,0.962,0,0,0.9086,0.912,0.9147,0.9212,0.9243,0.9289,0.9274,0.9323,0.9358,0.9363,0.9425,0.945,0.9496,0.9564,0.9596,0.9586,0.9696,0.9666,0.967,0.9673,0.9713,0.9722,0.973,0.9623,0.9623,0.9622,0,0,0.9143,0.9173,0.9223,0.9254,0.9301,0.9321,0.9333,0.938,0.9397,0.946,0.9465,0.9508,0.9588,0.9621,0.9648,0.972,0.9721,0.9734,0.9763,0.9802,0.981,0.9816,0.9842,0.9851,0.9741,0.9741,0.9741,0,0.916,0.9229,0.9248,0.9298,0.9327,0.9334,0.9385,0.9414,0.9474,0.9494,0.9483,0.9585,0.9616,0.9692,0.971,0.9732,0.9747,0.9728,0.9807,0.9814,0.9821,0.9845,0.9855,0.9742,0.9742,0.9742,0.9741,0,0.9248,0.9296,0.9331,0.9388,0.9421,0.9471,0.9499,0.953,0.9539,0.9562,0.9627,0.9665,0.9719,0.9738,0.9747,0.9816,0.9809,0.9802,0.9781,0.9831,0.9854,0.9864,0.9744,0.9743,0.9743,0.9742,0,0,0.9309,0.9377,0.9389,0.9415,0.9468,0.9506,0.9557,0.9609,0.9636,0.9678,0.9722,0.9791,0.9785,0.9816,0.9829,0.9863,0.9918,0.9853,0.9854,0.9863,0.9997,1.0001,1.0012,0.992,0.9922,0.9924,0.9993,0,0.9372,0.9462,0.9481,0.9559,0.9604,0.9612,0.9657,0.9695,0.9718,0.976,0.9786,0.9834,0.9823,0.9842,0.9876,0.9904,0.9945,0.99,0.9962,0.9964,0.9949,1.0024,1.0029,1.0092,1.0003,1.0004,1.0006,0,0.9457,0.95,0.9582,0.9629,0.9649,0.9689,0.9739,0.9779,0.9823,0.9837,0.9872,0.9883,0.9937,0.9915,0.9991,0.996,0.9987,1.0005,1.0008,1.0013,0.9987,1.0032,1.0113,1.0122,1.002,1.0019,1.0018,0,0.9492,0.9571,0.9631,0.9653,0.971,0.9738,0.9763,0.9805,0.9836,0.988,0.9901,0.9951,0.9979,1.0018,1.0042,1.0024,1.0117,1.0096,1.0131,1.013,1.0149,1.0147,1.0235,1.0168,1.0168,1.0168,1.0167,0,0.956,0.961,0.9648,0.9684,0.9741,0.9764,0.982,0.9845,0.9883,0.9925,0.9936,0.9976,1.0006,1.005,1.007,1.0131,1.0143,1.0157,1.0161,1.0155,1.0153,1.0172,1.0168,1.017,1.017,1.0169,1.0169,0,0.9609,0.9636,0.9701,0.9751,0.9764,0.9804,0.9847,0.9883,0.9907,0.996,0.9974,1.0012,1.0065,1.0093,1.016,1.0173,1.0241,1.0243,1.0225,1.0227,1.026,1.0256,1.0362,1.0378,1.0301,1.0301,1.0302,0,0.9649,0.9688,0.9742,0.977,0.9796,0.9843,0.9874,0.9899,0.9931,0.9985,1.0015,1.0069,1.0113,1.0198,1.0231,1.0283,1.0286,1.032,1.0294,1.0287,1.0286,1.0283,1.0287,1.0324,1.0325,1.0325,1.0326,0,0.9719,0.9731,0.9775,0.9825,0.9862,0.9902,0.9942,0.9966,0.9997,1.0033,1.0087,1.0122,1.019,1.0243,1.0297,1.0325,1.0331,1.0334,1.0345,1.0338,1.0326,1.0333,1.0237,1.0331,1.033,1.033,1.033,1.033,0.9765,0.98,0.9843,0.9892,0.9925,0.9963,0.9999,1.0028,1.0073,1.013,1.0142,1.02,1.0244,1.0318,1.0347,1.0393,1.0386,1.0402,1.0405,1.0409,1.041,1.032,1.0403,1.0403,1.0403,1.0403,1.0403,0,0.9834,0.9863,0.9908,0.9964,1.0003,1.0005,1.005,1.0083,1.0133,1.0174,1.0217,1.028,1.0332,1.037,1.0424,1.0454,1.0458,1.0467,1.0464,1.0471,1.0413,1.0398,1.0462,1.0462,1.0462,1.0462,1.0462,1.0462,0.9875,0.9934,0.9951,1.0028,1.0056,1.0112,1.0137,1.0173,1.0205,1.0275,1.0318,1.0342,1.0383,1.044,1.0488,1.0498,1.0517,1.0526,1.0536,1.0481,1.0475,1.0469,1.0455,1.053,1.053,1.059,1.0591,1.0591]},{"header":{"parameterUnit":"m.s-1","parameterCategory":1,"la1":30.2991,"la2":30.254,"lo1":-89.0895,"lo2":-89.0444,"dy":0.0017,"dx":0.0017,"nx":28,"ny":28,"refTime":"2024-07-17T03:00:00:Z","depth":0,"parameterNumber":3,"parameterNumberName":"V-component_of_WINDS"},"data":[0,0,0,0,0,0,0,0,0,0,0,0,0,0,0,0,0,0,0,0,0,0,0,0,0,0,0,0,0,0,0,0,0,0,0,0,0,0,0,0,0,0,0,0,0,0,0,0,0,0,0,0,0,0,0,0,0,0,-0.9876,-0.9876,0,-0.9855,-0.9855,-0.9854,-0.9836,-0.9836,-0.9836,-0.9835,-0.9813,-0.9813,-0.9812,0,0,0,0,0,0,0,0,0,0,0,0,0,-0.9902,-0.9901,-0.9876,-0.9876,-0.9876,-0.9855,-0.9855,-0.9854,-0.9836,-0.9836,-0.9836,-0.9835,-0.9813,-0.9813,-0.9812,0,0,0,0,0,0,0,0,0,0,0,0,0,-0.9886,-0.9901,-0.9876,-0.9864,-0.9863,-0.9855,-0.9855,-0.9854,-0.9836,-0.9836,-0.9836,-0.9835,-0.9813,-0.9813,-0.9812,-0.9814,0,0,-0.981,-0.981,0,0,0,0,0,0,0,0,-0.9887,-0.9886,-0.9866,-0.9865,-0.9864,-0.9848,-0.9855,-0.9841,-0.9836,-0.9846,-0.9835,-0.9835,-0.9825,-0.9823,-0.982,-0.9813,-0.9812,-0.981,-0.981,-0.9809,-0.9809,0,0,0,0,0,0,0,-0.9888,-0.9886,-0.9868,-0.9866,-0.9864,-0.986,-0.9857,-0.9853,-0.9837,-0.9845,-0.9844,-0.9842,-0.9824,-0.982,-0.9819,-0.9812,-0.981,-0.981,-0.9809,-0.9809,-0.9807,-0.9807,0,0,0,0,0,0,-0.9891,-0.9887,-0.9869,-0.9867,-0.9875,-0.986,-0.9857,-0.9853,-0.9837,-0.9835,-0.9842,-0.9841,-0.9822,-0.982,-0.9818,-0.982,-0.9809,-0.9809,-0.9809,-0.9806,-0.9807,-0.9807,0,0,0,0,0,0,-0.9892,-0.989,-0.9869,-0.9877,-0.9874,-0.986,-0.9856,-0.9853,-0.9849,-0.9835,-0.9832,-0.9841,-0.9821,-0.9819,-0.9816,-0.9819,-0.9809,-0.9808,-0.9806,-0.9806,-0.9807,-0.9823,0,0,0,0,0,0,-0.9893,-0.989,-0.9891,-0.9877,-0.9874,-0.9867,-0.9856,-0.9853,-0.9848,-0.9847,-0.9833,-0.9831,-0.9821,-0.9817,-0.9815,-0.9818,-0.9808,-0.9806,-0.9806,-0.9807,-0.9822,-0.9824,-0.9826,0,0,0,0,0,-0.9894,-0.9896,-0.9891,-0.9889,-0.9874,-0.9867,-0.9865,-0.9854,-0.9849,-0.9849,-0.984,-0.9831,-0.9819,-0.9816,-0.9814,-0.9817,-0.9805,-0.9806,-0.9807,-0.9821,-0.9824,-0.9826,0,0,0,0,0,0,-0.991,-0.9894,-0.9888,-0.9886,-0.9878,-0.9864,-0.9864,-0.9857,-0.985,-0.9849,-0.9835,-0.9832,-0.983,-0.9823,-0.9821,-0.9819,-0.9811,-0.9811,-0.9823,-0.9825,-0.9827,-0.9828,-0.9807,0,0,0,0,0,-0.9914,-0.9909,-0.9896,-0.9895,-0.9892,-0.9879,-0.9875,-0.9868,-0.9859,-0.9855,-0.9846,-0.9837,-0.9832,-0.9828,-0.9822,-0.9822,-0.9818,-0.9823,-0.9824,-0.9826,-0.9826,-0.9825,-0.9827,-0.9809,-0.9809,-0.9809,0,0,-0.992,-0.9911,-0.9909,-0.9898,-0.9891,-0.9887,-0.9876,-0.9872,-0.9869,-0.9854,-0.985,-0.9843,-0.9833,-0.9831,-0.983,-0.9826,-0.983,-0.9827,-0.9828,-0.9827,-0.9826,-0.9828,-0.9829,-0.981,-0.981,-0.981,0,0,-0.9931,-0.9924,-0.9922,-0.9916,-0.9906,-0.9897,-0.9897,-0.9884,-0.9879,-0.9875,-0.9864,-0.9861,-0.9851,-0.9844,-0.9839,-0.9849,-0.984,-0.9847,-0.9856,-0.9855,-0.9857,-0.9858,-0.9861,-0.9862,-0.9848,-0.9848,-0.9848,0,-0.994,-0.9934,-0.9923,-0.992,-0.9915,-0.9902,-0.9901,-0.9895,-0.9884,-0.9881,-0.9876,-0.9864,-0.9857,-0.9853,-0.9855,-0.9852,-0.9852,-0.9848,-0.9858,-0.9859,-0.9859,-0.9862,-0.9863,-0.9848,-0.9848,-0.9848,-0.9848,0,-0.9946,-0.9942,-0.9942,-0.9932,-0.9927,-0.9925,-0.9914,-0.9911,-0.9904,-0.9896,-0.9892,-0.9883,-0.9875,-0.9873,-0.9866,-0.9869,-0.9867,-0.986,-0.9852,-0.9862,-0.9864,-0.9865,-0.985,-0.9849,-0.9849,-0.9849,0,0,-0.9965,-0.9949,-0.9949,-0.9944,-0.9933,-0.9929,-0.9927,-0.9919,-0.9917,-0.991,-0.9907,-0.99,-0.9894,-0.9889,-0.9881,-0.9881,-0.9888,-0.9874,-0.9874,-0.9877,-0.989,-0.9895,-0.9896,-0.9883,-0.9883,-0.9883,-0.9891,0,-0.9973,-0.9968,-0.9958,-0.9956,-0.9952,-0.994,-0.9938,-0.9931,-0.9924,-0.992,-0.9912,-0.9907,-0.99,-0.9897,-0.9896,-0.9887,-0.9891,-0.9887,-0.988,-0.988,-0.9882,-0.9897,-0.9902,-0.9909,-0.9892,-0.9892,-0.9892,0,-0.9981,-0.9975,-0.9972,-0.9961,-0.9959,-0.9958,-0.995,-0.9946,-0.9938,-0.9933,-0.9928,-0.9919,-0.9916,-0.991,-0.9905,-0.9903,-0.99,-0.9895,-0.9895,-0.9894,-0.9886,-0.9895,-0.9912,-0.9913,-0.9893,-0.9893,-0.9893,0,-0.9994,-0.9985,-0.9983,-0.9979,-0.9966,-0.9965,-0.996,-0.9952,-0.9948,-0.9942,-0.9939,-0.9932,-0.9929,-0.9924,-0.9914,-0.991,-0.991,-0.9903,-0.9906,-0.9906,-0.9906,-0.9906,-0.9921,-0.9905,-0.9905,-0.9905,-0.9905,0,-1.0003,-1.0002,-0.9989,-0.9987,-0.9985,-0.9975,-0.9974,-0.9967,-0.996,-0.9957,-0.9947,-0.9944,-0.9932,-0.9928,-0.992,-0.9918,-0.9916,-0.9912,-0.991,-0.9912,-0.9913,-0.9909,-0.9908,-0.9905,-0.9905,-0.9905,-0.9905,0,-1.0017,-1.0008,-1.0005,-0.9993,-0.9991,-0.999,-0.998,-0.9978,-0.9971,-0.9968,-0.9966,-0.9955,-0.995,-0.994,-0.9932,-0.9927,-0.9926,-0.9922,-0.9928,-0.9927,-0.993,-0.993,-0.9943,-0.9944,-0.9929,-0.9929,-0.9929,0,-1.0023,-1.0022,-1.0011,-1.0009,-1.0004,-1.0,-0.9996,-0.9986,-0.9982,-0.9973,-0.9973,-0.9967,-0.9961,-0.9954,-0.9945,-0.9939,-0.9935,-0.994,-0.9934,-0.9937,-0.9934,-0.9934,-0.9934,-0.9941,-0.9941,-0.9942,-0.9942,0,-1.0035,-1.0031,-1.0026,-1.002,-1.0016,-1.001,-1.0004,-1.0003,-0.9991,-0.9988,-0.9983,-0.9979,-0.9971,-0.9965,-0.9958,-0.9953,-0.9945,-0.9944,-0.9944,-0.9946,-0.995,-0.9947,-0.9931,-0.9943,-0.9943,-0.9943,-0.9943,-0.9943,-1.0045,-1.0043,-1.0035,-1.0031,-1.0025,-1.002,-1.0018,-1.0011,-1.0006,-0.9999,-0.9994,-0.9989,-0.9981,-0.9971,-0.9966,-0.9962,-0.9959,-0.9959,-0.9959,-0.9959,-0.996,-0.9951,-0.9961,-0.9961,-0.9961,-0.9961,-0.9961,0,-1.0055,-1.005,-1.0046,-1.0038,-1.0034,-1.0028,-1.0022,-1.0019,-1.0015,-1.0009,-1.0004,-0.9998,-0.9993,-0.9984,-0.9978,-0.9977,-0.9973,-0.9975,-0.9975,-0.9974,-0.9964,-0.9964,-0.9978,-0.9978,-0.9978,-0.9978,-0.9978,-0.9978,-1.006,-1.0058,-1.0053,-1.0047,-1.0042,-1.0038,-1.0034,-1.003,-1.0025,-1.0019,-1.0014,-1.0009,-1.0002,-0.9995,-0.999,-0.9988,-0.9986,-0.9989,-0.9985,-0.9976,-0.9974,-0.9973,-0.9973,-0.9989,-0.9989,-0.9995,-0.9995,-0.9995]}]]